FW6754 Weather Reports


Display with metric or nautical units.
time (UTC)temp
F
wind
direction
speed
MPH
gust
MPH
rain 1hr
in
rain 24hr
in
rain mn
in
humidity
%
barometer
mb
20260508140912 94 0.0 0.0 0.00 0.00 0.00 10 1013.6
20260508140411 90 0.0 0.0 0.00 0.00 0.00 10 1013.7
20260508135912 80 0.0 0.0 0.00 0.00 0.00 10 1014.2
20260508135411 76 0.0 0.0 0.00 0.00 0.00 10 1014.5
20260508134411 81 0.0 0.0 0.00 0.00 0.00 10 1014.1
20260508133411 75 0.0 0.0 0.00 0.00 0.00 10 1014.3
20260508132412 75 0.0 0.0 0.00 0.00 0.00 10 1014.3
20260508131912 75 0.0 0.0 0.00 0.00 0.00 10 1014.3
20260508131412 74 0.0 0.0 0.00 0.00 0.00 10 1014.4
20260508130911 74 0.0 0.0 0.00 0.00 0.00 10 1014.6
20260508130413 74 0.0 0.0 0.00 0.00 0.00 10 1014.5
20260508125912 75 0.0 0.0 0.00 0.00 0.00 10 1014.6
20260508125412 77 0.0 0.0 0.00 0.00 0.00 10 1014.4
20260508124911 79 0.0 0.0 0.00 0.00 0.00 10 1014.3
20260508124411 78 0.0 0.0 0.00 0.00 0.00 10 1014.4
20260508123911 75 0.0 0.0 0.00 0.00 0.00 10 1014.5
20260508123412 79 0.0 0.0 0.00 0.00 0.00 10 1014.5
20260508122913 87 0.0 0.0 0.00 0.00 0.00 10 1014.1
20260508122412 89 0.0 0.0 0.00 0.00 0.00 10 1014.1
20260508121912 89 0.0 0.0 0.00 0.00 0.00 10 1014.0
20260508120912 85 0.0 0.0 0.00 0.00 0.00 10 1014.3
20260508120412 85 0.0 0.0 0.00 0.00 0.00 10 1014.2
20260508115912 85 0.0 0.0 0.00 0.00 0.00 10 1014.2
20260508115412 78 0.0 0.0 0.00 0.00 0.00 10 1014.7
20260508114912 71 0.0 0.0 0.00 0.00 0.00 10 1015.1
20260508114413 70 0.0 0.0 0.00 0.00 0.00 10 1015.2
20260508113912 70 0.0 0.0 0.00 0.00 0.00 10 1015.3
20260508113412 70 0.0 0.0 0.00 0.00 0.00 10 1015.3
20260508112913 70 0.0 0.0 0.00 0.00 0.00 10 1015.4
20260508112412 70 0.0 0.0 0.00 0.00 0.00 10 1015.3
20260508111912 70 0.0 0.0 0.00 0.00 0.00 10 1015.4
20260508111412 69 0.0 0.0 0.00 0.00 0.00 10 1015.4
20260508110912 68 0.0 0.0 0.00 0.00 0.00 10 1015.5
20260508104912 67 0.0 0.0 0.00 0.00 0.00 10 1015.9
20260508104412 68 0.0 0.0 0.00 0.00 0.00 10 1015.9
20260508103912 67 0.0 0.0 0.00 0.00 0.00 10 1015.9
20260508103412 67 0.0 0.0 0.00 0.00 0.00 10 1016.0
20260508102912 67 0.0 0.0 0.00 0.00 0.00 10 1016.2
20260508102411 66 0.0 0.0 0.00 0.00 0.00 10 1016.3
20260508101911 66 0.0 0.0 0.00 0.00 0.00 10 1016.3
20260508101412 66 0.0 0.0 0.00 0.00 0.00 10 1016.3
20260508100912 66 0.0 0.0 0.00 0.00 0.00 10 1016.3
20260508100413 65 0.0 0.0 0.00 0.00 0.00 10 1016.3
20260508095913 65 0.0 0.0 0.00 0.00 0.00 10 1016.4
20260508095412 65 0.0 0.0 0.00 0.00 0.00 10 1016.3
20260508094912 64 0.0 0.0 0.00 0.00 0.00 10 1016.3
20260508094412 64 0.0 0.0 0.00 0.00 0.00 10 1016.4
20260508093912 64 0.0 0.0 0.00 0.00 0.00 10 1016.4
20260508093412 64 0.0 0.0 0.00 0.00 0.00 10 1016.4
20260508092412 63 0.0 0.0 0.00 0.00 0.00 10 1016.5
20260508091912 62 0.0 0.0 0.00 0.00 0.00 10 1016.5
20260508091412 62 0.0 0.0 0.00 0.00 0.00 10 1016.5
20260508090912 61 0.0 0.0 0.00 0.00 0.00 10 1016.6
20260508085912 61 0.0 0.0 0.00 0.00 0.00 10 1016.6
20260508085412 61 0.0 0.0 0.00 0.00 0.00 10 1016.6
20260508084911 60 0.0 0.0 0.00 0.00 0.00 10 1016.7
20260508084412 60 0.0 0.0 0.00 0.00 0.00 10 1016.7
20260508083912 60 0.0 0.0 0.00 0.00 0.00 10 1016.8
20260508083411 59 0.0 0.0 0.00 0.00 0.00 10 1016.9
20260508082911 59 0.0 0.0 0.00 0.00 0.00 10 1016.9
20260508081911 59 0.0 0.0 0.00 0.00 0.00 10 1016.9
20260508081411 59 0.0 0.0 0.00 0.00 0.00 10 1016.9
20260508080912 58 0.0 0.0 0.00 0.00 0.00 10 1016.9
20260508080413 58 0.0 0.0 0.00 0.00 0.00 10 1016.9
20260508075911 57 0.0 0.0 0.00 0.00 0.00 10 1017.0
20260508074911 57 0.0 0.0 0.00 0.00 0.00 10 1017.0
20260508074411 57 0.0 0.0 0.00 0.00 0.00 10 1017.2
20260508073912 57 0.0 0.0 0.00 0.00 0.00 10 1017.1
20260508073411 56 0.0 0.0 0.00 0.00 0.00 10 1017.1
20260508071411 55 0.0 0.0 0.00 0.00 0.00 10 1017.2
20260508070911 54 0.0 0.0 0.00 0.00 0.00 10 1017.3
20260508065912 53 0.0 0.0 0.00 0.00 0.00 10 1017.3
20260508065411 52 0.0 0.0 0.00 0.00 0.00 10 1017.3
20260508064912 52 0.0 0.0 0.00 0.00 0.00 10 1017.3
20260508064413 52 0.0 0.0 0.00 0.00 0.00 10 1017.3
20260508063912 52 0.0 0.0 0.00 0.00 0.00 10 1017.3
20260508063412 52 0.0 0.0 0.00 0.00 0.00 10 1017.4
20260508062912 51 0.0 0.0 0.00 0.00 0.00 10 1017.5
20260508062411 50 0.0 0.0 0.00 0.00 0.00 10 1017.5
20260508060911 48 0.0 0.0 0.00 0.00 0.00 10 1017.3
20260508055912 47 0.0 0.0 0.00 0.00 0.00 10 1017.4
20260508055412 46 0.0 0.0 0.00 0.00 0.00 10 1017.4
20260508054912 46 0.0 0.0 0.00 0.00 0.00 10 1017.4
20260508054411 46 0.0 0.0 0.00 0.00 0.00 10 1017.4
20260508053912 45 0.0 0.0 0.00 0.00 0.00 10 1017.3
20260508053411 45 0.0 0.0 0.00 0.00 0.00 10 1017.4
20260508052412 45 0.0 0.0 0.00 0.00 0.00 10 1017.3
20260508051912 45 0.0 0.0 0.00 0.00 0.00 10 1017.3
20260508051411 45 0.0 0.0 0.00 0.00 0.00 10 1017.3
20260508050912 45 0.0 0.0 0.00 0.00 0.00 10 1017.1
20260508050412 45 0.0 0.0 0.00 0.00 0.00 10 1017.1
20260508045913 45 0.0 0.0 0.00 0.00 0.00 10 1017.1
20260508045411 45 0.0 0.0 0.00 0.00 0.00 10 1017.0
20260508043412 44 0.0 0.0 0.00 0.00 0.00 10 1017.0
20260508042912 44 0.0 0.0 0.00 0.00 0.00 10 1017.0
20260508042412 44 0.0 0.0 0.00 0.00 0.00 10 1017.0
20260508041911 44 0.0 0.0 0.00 0.00 0.00 10 1017.2
20260508040411 44 0.0 0.0 0.00 0.00 0.00 10 1017.2
20260508035911 44 0.0 0.0 0.00 0.00 0.00 10 1017.2
20260508034912 43 0.0 0.0 0.00 0.00 0.00 10 1017.3
20260508033911 43 0.0 0.0 0.00 0.00 0.00 10 1017.4
20260508032413 42 0.0 0.0 0.00 0.00 0.00 10 1017.4
20260508031912 43 0.0 0.0 0.00 0.00 0.00 10 1017.3
20260508031412 43 0.0 0.0 0.00 0.00 0.00 10 1017.4
20260508030912 43 0.0 0.0 0.00 0.00 0.00 10 1017.4
20260508030412 43 0.0 0.0 0.00 0.00 0.00 10 1017.4
20260508025912 43 0.0 0.0 0.00 0.00 0.00 10 1017.4
20260508025412 43 0.0 0.0 0.00 0.00 0.00 10 1017.5
20260508024411 43 0.0 0.0 0.00 0.00 0.00 10 1017.4
20260508023412 43 0.0 0.0 0.00 0.00 0.00 10 1017.4
20260508022911 43 0.0 0.0 0.00 0.00 0.00 10 1017.4
20260508022412 43 0.0 0.0 0.00 0.00 0.00 10 1017.4
20260508021911 43 0.0 0.0 0.00 0.00 0.00 10 1017.4
20260508020912 43 0.0 0.0 0.00 0.00 0.00 10 1017.4
20260508020412 43 0.0 0.0 0.00 0.00 0.00 10 1017.4
20260508015911 43 0.0 0.0 0.00 0.00 0.00 10 1017.4
20260508015411 43 0.0 0.0 0.00 0.00 0.00 10 1017.3
20260508014911 43 0.0 0.0 0.00 0.00 0.00 10 1017.6
20260508014412 43 0.0 0.0 0.00 0.00 0.00 10 1017.4
20260508013911 44 0.0 0.0 0.00 0.00 0.00 10 1017.5
20260508013411 44 0.0 0.0 0.00 0.00 0.00 10 1017.4
20260508012912 44 0.0 0.0 0.00 0.00 0.00 10 1017.4
20260508012411 44 0.0 0.0 0.00 0.00 0.00 10 1017.4
20260508011911 44 0.0 0.0 0.00 0.00 0.00 10 1017.4
20260508010912 44 0.0 0.0 0.00 0.00 0.00 10 1017.4
20260508010412 44 0.0 0.0 0.00 0.00 0.00 10 1017.3
20260508005911 44 0.0 0.0 0.00 0.00 0.00 10 1017.4
20260508005411 44 0.0 0.0 0.00 0.00 0.00 10 1017.5
20260508004912 45 0.0 0.0 0.00 0.00 0.00 10 1017.5
20260508004412 45 0.0 0.0 0.00 0.00 0.00 10 1017.5
20260508003912 45 0.0 0.0 0.00 0.00 0.00 10 1017.5
20260508003412 45 0.0 0.0 0.00 0.00 0.00 10 1017.4
20260508002913 45 0.0 0.0 0.00 0.00 0.00 10 1017.4
20260508002411 45 0.0 0.0 0.00 0.00 0.00 10 1017.4
20260508001912 45 0.0 0.0 0.00 0.00 0.00 10 1017.4
20260508001412 45 0.0 0.0 0.00 0.00 0.00 10 1017.4
20260508000912 44 0.0 0.0 0.00 0.00 0.00 10 1017.5
20260508000412 44 0.0 0.0 0.00 0.00 0.00 10 1017.5
20260507235911 44 0.0 0.0 0.00 0.00 0.00 10 1017.6
20260507235412 44 0.0 0.0 0.00 0.00 0.00 10 1017.6
20260507234911 45 0.0 0.0 0.00 0.00 0.00 10 1017.8
20260507234411 45 0.0 0.0 0.00 0.00 0.00 10 1017.9
20260507233412 45 0.0 0.0 0.00 0.00 0.00 10 1018.0
20260507232911 45 0.0 0.0 0.00 0.00 0.00 10 1018.1
20260507232411 45 0.0 0.0 0.00 0.00 0.00 10 1018.1
20260507230912 45 0.0 0.0 0.00 0.00 0.00 10 1018.0
20260507230411 45 0.0 0.0 0.00 0.00 0.00 10 1018.0
20260507225912 45 0.0 0.0 0.00 0.00 0.00 10 1017.9
20260507225412 45 0.0 0.0 0.00 0.00 0.00 10 1018.0
20260507224911 45 0.0 0.0 0.00 0.00 0.00 10 1018.0
20260507223912 46 0.0 0.0 0.00 0.00 0.00 10 1017.9
20260507223412 46 0.0 0.0 0.00 0.00 0.00 10 1018.0
20260507222911 46 0.0 0.0 0.00 0.00 0.00 10 1017.9
20260507222411 46 0.0 0.0 0.00 0.00 0.00 10 1018.0
20260507221911 46 0.0 0.0 0.00 0.00 0.00 10 1017.8
20260507220912 46 0.0 0.0 0.00 0.00 0.00 10 1017.9
20260507220412 46 0.0 0.0 0.00 0.00 0.00 10 1018.0
20260507215912 46 0.0 0.0 0.00 0.00 0.00 10 1018.0
20260507215412 46 0.0 0.0 0.00 0.00 0.00 10 1017.9
20260507214912 47 0.0 0.0 0.00 0.00 0.00 10 1017.9
20260507214411 47 0.0 0.0 0.00 0.00 0.00 10 1017.8
20260507213911 47 0.0 0.0 0.00 0.00 0.00 10 1017.7
20260507213411 47 0.0 0.0 0.00 0.00 0.00 10 1017.8
20260507212911 47 0.0 0.0 0.00 0.00 0.00 10 1017.7
20260507212412 48 0.0 0.0 0.00 0.00 0.00 10 1017.8
20260507211912 48 0.0 0.0 0.00 0.00 0.00 10 1017.6
20260507211411 48 0.0 0.0 0.00 0.00 0.00 10 1017.7
20260507210411 48 0.0 0.0 0.00 0.00 0.00 10 1017.6
20260507205411 48 0.0 0.0 0.00 0.00 0.00 10 1017.5
20260507204912 48 0.0 0.0 0.00 0.00 0.00 10 1017.5
20260507204411 48 0.0 0.0 0.00 0.00 0.00 10 1017.5
20260507203911 49 0.0 0.0 0.00 0.00 0.00 10 1017.5
20260507202912 49 0.0 0.0 0.00 0.00 0.00 10 1017.4
20260507201411 49 0.0 0.0 0.00 0.00 0.00 10 1017.3
20260507200913 49 0.0 0.0 0.00 0.00 0.00 10 1017.1
20260507200411 50 0.0 0.0 0.00 0.00 0.00 10 1017.2
20260507195411 50 0.0 0.0 0.00 0.00 0.00 10 1017.1
20260507194411 50 0.0 0.0 0.00 0.00 0.00 10 1016.8
20260507193912 51 0.0 0.0 0.00 0.00 0.00 10 1016.7
20260507193412 51 0.0 0.0 0.00 0.00 0.00 10 1016.6
20260507192912 51 0.0 0.0 0.00 0.00 0.00 10 1016.6
20260507192411 52 0.0 0.0 0.00 0.00 0.00 10 1016.4
20260507191912 52 0.0 0.0 0.00 0.00 0.00 10 1016.4
20260507191411 53 0.0 0.0 0.00 0.00 0.00 10 1016.3
20260507190912 53 0.0 0.0 0.00 0.00 0.00 10 1016.3
20260507190411 54 0.0 0.0 0.00 0.00 0.00 10 1016.3
20260507185912 54 0.0 0.0 0.00 0.00 0.00 10 1016.1
20260507185412 55 0.0 0.0 0.00 0.00 0.00 10 1016.2
20260507184911 55 0.0 0.0 0.00 0.00 0.00 10 1016.0
20260507183911 56 0.0 0.0 0.00 0.00 0.00 10 1015.9
20260507182912 57 0.0 0.0 0.00 0.00 0.00 10 1015.7
20260507182411 58 0.0 0.0 0.00 0.00 0.00 10 1015.7
20260507181911 59 0.0 0.0 0.00 0.00 0.00 10 1015.5
20260507180412 60 0.0 0.0 0.00 0.00 0.00 10 1015.3
20260507175912 61 0.0 0.0 0.00 0.00 0.00 10 1015.2
20260507175412 61 0.0 0.0 0.00 0.00 0.00 10 1015.1
20260507174912 63 0.0 0.0 0.00 0.00 0.00 10 1015.1
20260507174412 65 0.0 0.0 0.00 0.00 0.00 10 1015.0
20260507173913 69 0.0 0.0 0.00 0.00 0.00 10 1014.8
20260507173412 72 0.0 0.0 0.00 0.00 0.00 10 1014.5
20260507172911 79 0.0 0.0 0.00 0.00 0.00 10 1014.2
20260507171911 66 0.0 0.0 0.00 0.00 0.00 10 1014.9
20260507171412 64 0.0 0.0 0.00 0.00 0.00 10 1015.0
20260507170911 66 0.0 0.0 0.00 0.00 0.00 10 1014.8
20260507165912 68 0.0 0.0 0.00 0.00 0.00 10 1014.6
20260507165411 70 0.0 0.0 0.00 0.00 0.00 10 1014.6
20260507164913 69 0.0 0.0 0.00 0.00 0.00 10 1014.7
20260507164411 67 0.0 0.0 0.00 0.00 0.00 10 1014.9
20260507163412 65 0.0 0.0 0.00 0.00 0.00 10 1015.0
20260507162912 67 0.0 0.0 0.00 0.00 0.00 10 1014.9
20260507162411 68 0.0 0.0 0.00 0.00 0.00 10 1014.9
20260507161911 70 0.0 0.0 0.00 0.00 0.00 10 1014.8
20260507160911 70 0.0 0.0 0.00 0.00 0.00 10 1014.9
20260507160411 70 0.0 0.0 0.00 0.00 0.00 10 1014.9
20260507155912 71 0.0 0.0 0.00 0.00 0.00 10 1014.9
20260507154912 72 0.0 0.0 0.00 0.00 0.00 10 1014.9
20260507154412 71 0.0 0.0 0.00 0.00 0.00 10 1015.0
20260507153912 72 0.0 0.0 0.00 0.00 0.00 10 1014.9
20260507153411 75 0.0 0.0 0.00 0.00 0.00 10 1014.7
20260507152412 76 0.0 0.0 0.00 0.00 0.00 10 1014.9
20260507151912 77 0.0 0.0 0.00 0.00 0.00 10 1015.0
20260507151411 84 0.0 0.0 0.00 0.00 0.00 10 1014.6
20260507150912 87 0.0 0.0 0.00 0.00 0.00 10 1014.5
20260507150412 89 0.0 0.0 0.00 0.00 0.00 10 1014.4
20260507145912 89 0.0 0.0 0.00 0.00 0.00 10 1014.5
20260507145411 88 0.0 0.0 0.00 0.00 0.00 10 1014.6
20260507144911 87 0.0 0.0 0.00 0.00 0.00 10 1014.6
20260507143912 87 0.0 0.0 0.00 0.00 0.00 10 1014.6
20260507143412 84 0.0 0.0 0.00 0.00 0.00 10 1014.8
20260507142912 83 0.0 0.0 0.00 0.00 0.00 10 1015.0
20260507142412 78 0.0 0.0 0.00 0.00 0.00 10 1015.2
20260507141912 73 0.0 0.0 0.00 0.00 0.00 10 1015.6
20260507141412 80 0.0 0.0 0.00 0.00 0.00 10 1015.3